Tracking 33723 objects as of 10-Apr-2026
HD Live streaming from Space Station
objects crossing your sky now

COSMOS 1275 DEB

Track COSMOS 1275 DEB now!
10-day predictions


NORAD ID: 12740
Int'l Code: 1981-053CH
Perigee: 754.8 km
Apogee: 771.2 km
Inclination: 82.8 °
Period: 99.9 minutes
Semi major axis: 7133 km
RCS: 0.0069 m2 (small)
Launch date: June 4, 1981
Source: Commonwealth of Independent States (former USSR) (CIS)
Launch site: PLESETSK MISSILE AND SPACE COMPLEX (PKMTR)

Note: This is SATELLITE DEBRIS
Your satellite tracking list
Your tracking list is empty




NASA's NSSDC Master Catalog

Two Line Element Set (TLE):
1 12740U 81053CH  26099.87332784  .00003983  00000-0  12384-2 0  9992
2 12740  82.8355 258.8219 0011514 336.8189 176.4238 14.40804309287485
Source of the keplerian elements: AFSPC